Location: Ahstedt
(52.2048°N, 10.1060°E)
Time: 20:04:55
(UTC+00:00)

Meteor 2-10 Rocket - Pass Details

Date: 18 January 2026
Orbit: 733 x 881 km, 81.2° (Epoch: 16 February)

Event Time Altitude Azimuth Distance (km) Brightness Sun altitude
Rises 04:11:23 0° 174° (S) 3,188 6.8 -28.0°
Reaches altitude 10° 04:13:43 10° 169° (S) 2,284 6.0 -27.7°
Maximum altitude 04:18:40 50° 95° (E) 991 4.4 -26.9°
Drops below altitude 10° 04:23:50 10° 21° (NNE) 2,389 6.3 -26.1°
Sets 04:26:19 0° 17° (NNE) 3,348 7.0 -25.8°
